Time,TemperatureF,DewpointF,PressureIn,WindDirection,WindDirectionDegrees,WindSpeedMPH,WindSpeedGustMPH,Humidity,HourlyPrecipIn,Conditions,Clouds,dailyrainin,SoftwareType,DateUTC
2013-03-01 00:00:00,28.1,25.0,29.95,NNW,348,12.0,12.0,88,0.00,,,0.00,Wunderground v.1.15,2013-03-01 05:00:00,
2013-03-01 00:05:00,28.0,24.9,29.94,NNW,348,13.0,16.0,88,0.00,,,0.00,Wunderground v.1.15,2013-03-01 05:05:00,
2013-03-01 00:10:00,28.0,24.9,29.95,NNW,348,13.0,13.0,88,0.00,,,0.00,Wunderground v.1.15,2013-03-01 05:10:00,
2013-03-01 00:15:00,28.0,24.9,29.95,NNW,348,12.0,13.0,88,0.00,,,0.00,Wunderground v.1.15,2013-03-01 05:15:00,
2013-03-01 00:19:00,28.0,24.9,29.96,NNW,348,12.0,12.0,88,0.00,,,0.00,Wunderground v.1.15,2013-03-01 05:19:00,
2013-03-01 00:24:00,28.0,25.2,29.96,NNW,348,12.0,12.0,89,0.00,,,0.00,Wunderground v.1.15,2013-03-01 05:24:00,
2013-03-01 00:30:00,28.0,25.2,29.95,NNW,348,12.0,12.0,89,0.00,,,0.00,Wunderground v.1.15,2013-03-01 05:30:00,
2013-03-01 00:35:00,28.0,25.2,29.95,NNW,348,11.0,12.0,89,0.00,,,0.00,Wunderground v.1.15,2013-03-01 05:35:00,
2013-03-01 00:45:00,27.8,25.0,29.96,NNW,348,13.0,13.0,89,0.00,,,0.00,Wunderground v.1.15,2013-03-01 05:45:00,
2013-03-01 00:50:00,27.8,25.2,29.95,NNW,348,12.0,12.0,90,0.00,,,0.00,Wunderground v.1.15,2013-03-01 05:50:00,
2013-03-01 00:59:00,27.8,25.5,29.95,NNW,348,11.0,11.0,91,0.00,,,0.00,Wunderground v.1.15,2013-03-01 05:59:00,
2013-03-01 01:05:00,27.7,25.4,29.95,NNW,348,10.0,11.0,91,0.00,,,0.00,Wunderground v.1.15,2013-03-01 06:05:00,
2013-03-01 01:15:00,27.6,25.6,29.95,NNW,348,9.0,11.0,92,0.00,,,0.00,Wunderground v.1.15,2013-03-01 06:15:00,
2013-03-01 01:20:00,27.5,25.5,29.95,NNW,348,10.0,10.0,92,0.00,,,0.00,Wunderground v.1.15,2013-03-01 06:20:00,
2013-03-01 01:25:00,27.5,25.5,29.96,NNW,348,10.0,10.0,92,0.00,,,0.00,Wunderground v.1.15,2013-03-01 06:25:00,
2013-03-01 01:34:00,27.4,25.6,29.95,NNW,348,9.0,9.0,93,0.00,,,0.00,Wunderground v.1.15,2013-03-01 06:34:00,
2013-03-01 01:39:00,27.4,25.6,29.95,NNW,348,9.0,10.0,93,0.00,,,0.00,Wunderground v.1.15,2013-03-01 06:39:00,
2013-03-01 01:44:00,27.4,25.6,29.95,NNW,348,8.0,10.0,93,0.00,,,0.00,Wunderground v.1.15,2013-03-01 06:44:00,
2013-03-01 01:54:00,27.3,25.8,29.96,NNW,348,8.0,9.0,94,0.00,,,0.00,Wunderground v.1.15,2013-03-01 06:54:00,
2013-03-01 02:05:00,27.2,25.7,29.95,NNW,348,9.0,10.0,94,0.00,,,0.00,Wunderground v.1.15,2013-03-01 07:05:00,
2013-03-01 02:14:00,27.2,25.7,29.95,NNW,348,9.0,12.0,94,0.00,,,0.00,Wunderground v.1.15,2013-03-01 07:14:00,
2013-03-01 02:19:00,27.2,26.0,29.95,NNW,348,10.0,10.0,95,0.00,,,0.00,Wunderground v.1.15,2013-03-01 07:19:00,
2013-03-01 02:24:00,27.2,25.7,29.95,NNW,348,9.0,10.0,94,0.00,,,0.00,Wunderground v.1.15,2013-03-01 07:24:00,
2013-03-01 02:34:00,27.2,26.0,29.95,NNW,348,9.0,11.0,95,0.00,,,0.00,Wunderground v.1.15,2013-03-01 07:34:00,
2013-03-01 02:40:00,27.2,26.0,29.95,NNW,348,9.0,12.0,95,0.00,,,0.00,Wunderground v.1.15,2013-03-01 07:40:00,
2013-03-01 02:45:00,27.2,26.0,29.95,NNW,348,9.0,12.0,95,0.00,,,0.00,Wunderground v.1.15,2013-03-01 07:45:00,
2013-03-01 02:55:00,27.2,26.0,29.94,NNW,348,7.0,12.0,95,0.00,,,0.00,Wunderground v.1.15,2013-03-01 07:55:00,
2013-03-01 03:05:00,27.1,25.9,29.94,NNW,348,9.0,10.0,95,0.00,,,0.00,Wunderground v.1.15,2013-03-01 08:05:00,
2013-03-01 03:15:00,27.1,25.9,29.94,NNW,348,7.0,10.0,95,0.00,,,0.00,Wunderground v.1.15,2013-03-01 08:15:00,
2013-03-01 03:20:00,27.1,25.9,29.94,NNW,348,7.0,7.0,95,0.00,,,0.00,Wunderground v.1.15,2013-03-01 08:20:00,
2013-03-01 03:25:00,27.1,25.9,29.93,NNW,348,8.0,8.0,95,0.00,,,0.00,Wunderground v.1.15,2013-03-01 08:25:00,
2013-03-01 03:30:00,27.1,25.9,29.93,NNW,348,9.0,9.0,95,0.00,,,0.00,Wunderground v.1.15,2013-03-01 08:30:00,
2013-03-01 03:35:00,27.2,26.0,29.93,NNW,348,8.0,9.0,95,0.00,,,0.00,Wunderground v.1.15,2013-03-01 08:35:00,
2013-03-01 03:40:00,27.1,26.1,29.93,NNW,348,8.0,10.0,96,0.00,,,0.00,Wunderground v.1.15,2013-03-01 08:40:00,
2013-03-01 03:49:00,27.1,26.1,29.93,NNW,348,8.0,8.0,96,0.00,,,0.00,Wunderground v.1.15,2013-03-01 08:49:00,
2013-03-01 03:54:00,27.1,26.1,29.93,NNW,348,8.0,9.0,96,0.00,,,0.00,Wunderground v.1.15,2013-03-01 08:54:00,
2013-03-01 04:00:00,27.1,26.1,29.92,NNW,348,9.0,11.0,96,0.00,,,0.00,Wunderground v.1.15,2013-03-01 09:00:00,
2013-03-01 04:05:00,27.1,26.1,29.93,NNW,348,9.0,11.0,96,0.00,,,0.00,Wunderground v.1.15,2013-03-01 09:05:00,
2013-03-01 04:14:00,27.1,26.1,29.93,NNW,348,10.0,10.0,96,0.00,,,0.00,Wunderground v.1.15,2013-03-01 09:14:00,
2013-03-01 04:19:00,27.1,26.1,29.93,NNW,348,9.0,10.0,96,0.00,,,0.00,Wunderground v.1.15,2013-03-01 09:19:00,
2013-03-01 04:24:00,27.1,26.1,29.93,NNW,348,9.0,10.0,96,0.00,,,0.00,Wunderground v.1.15,2013-03-01 09:24:00,
2013-03-01 04:29:00,27.1,26.1,29.94,NNW,348,9.0,9.0,96,0.00,,,0.00,Wunderground v.1.15,2013-03-01 09:29:00,
2013-03-01 04:35:00,27.1,26.1,29.94,NNW,348,8.0,9.0,96,0.00,,,0.00,Wunderground v.1.15,2013-03-01 09:35:00,
2013-03-01 04:40:00,27.2,26.2,29.94,NNW,348,8.0,8.0,96,0.00,,,0.00,Wunderground v.1.15,2013-03-01 09:40:00,
2013-03-01 04:45:00,27.2,26.2,29.94,NNW,348,8.0,8.0,96,0.00,,,0.00,Wunderground v.1.15,2013-03-01 09:45:00,
2013-03-01 04:50:00,27.2,26.2,29.94,NNW,348,8.0,8.0,96,0.00,,,0.00,Wunderground v.1.15,2013-03-01 09:50:00,
2013-03-01 04:55:00,27.2,26.2,29.94,NNW,348,9.0,9.0,96,0.00,,,0.00,Wunderground v.1.15,2013-03-01 09:55:00,
2013-03-01 05:05:00,27.2,26.2,29.94,NNW,348,8.0,9.0,96,0.00,,,0.00,Wunderground v.1.15,2013-03-01 10:05:00,
2013-03-01 05:15:00,27.2,26.2,29.95,NNW,348,8.0,10.0,96,0.00,,,0.00,Wunderground v.1.15,2013-03-01 10:15:00,
2013-03-01 05:24:00,27.2,26.2,29.95,NNW,348,7.0,10.0,96,0.00,,,0.00,Wunderground v.1.15,2013-03-01 10:24:00,
2013-03-01 05:29:00,27.2,26.2,29.95,NNW,348,8.0,8.0,96,0.00,,,0.00,Wunderground v.1.15,2013-03-01 10:29:00,
2013-03-01 05:34:00,27.2,26.2,29.95,NNW,348,7.0,8.0,96,0.00,,,0.00,Wunderground v.1.15,2013-03-01 10:34:00,
2013-03-01 05:40:00,27.2,26.2,29.95,NNW,348,7.0,10.0,96,0.00,,,0.00,Wunderground v.1.15,2013-03-01 10:40:00,
2013-03-01 05:45:00,27.2,26.2,29.96,NNW,348,8.0,10.0,96,0.00,,,0.00,Wunderground v.1.15,2013-03-01 10:45:00,
2013-03-01 05:50:00,27.2,26.5,29.95,NNW,348,7.0,7.0,97,0.00,,,0.00,Wunderground v.1.15,2013-03-01 10:50:00,
2013-03-01 05:55:00,27.2,26.5,29.95,NNW,348,7.0,7.0,97,0.00,,,0.00,Wunderground v.1.15,2013-03-01 10:55:00,
2013-03-01 06:00:00,27.2,26.5,29.95,NNW,348,7.0,7.0,97,0.00,,,0.00,Wunderground v.1.15,2013-03-01 11:00:00,
2013-03-01 06:09:00,27.3,26.6,29.95,NNW,348,7.0,7.0,97,0.00,,,0.00,Wunderground v.1.15,2013-03-01 11:09:00,
2013-03-01 06:14:00,27.3,26.6,29.95,NNW,348,7.0,7.0,97,0.00,,,0.00,Wunderground v.1.15,2013-03-01 11:14:00,
2013-03-01 06:20:00,27.3,26.6,29.95,NNW,348,7.0,8.0,97,0.00,,,0.00,Wunderground v.1.15,2013-03-01 11:20:00,
2013-03-01 06:25:00,27.3,26.6,29.95,NNW,348,7.0,9.0,97,0.00,,,0.00,Wunderground v.1.15,2013-03-01 11:25:00,
2013-03-01 06:35:00,27.2,26.5,29.95,NNW,348,8.0,10.0,97,0.00,,,0.00,Wunderground v.1.15,2013-03-01 11:35:00,
2013-03-01 06:44:00,27.2,26.5,29.95,NNW,348,7.0,8.0,97,0.00,,,0.00,Wunderground v.1.15,2013-03-01 11:44:00,
2013-03-01 06:49:00,27.2,26.5,29.94,NNW,348,7.0,8.0,97,0.00,,,0.00,Wunderground v.1.15,2013-03-01 11:49:00,
2013-03-01 06:54:00,27.2,26.5,29.95,NNW,348,7.0,8.0,97,0.00,,,0.00,Wunderground v.1.15,2013-03-01 11:54:00,
2013-03-01 06:59:00,27.2,26.5,29.95,NNW,348,7.0,7.0,97,0.00,,,0.00,Wunderground v.1.15,2013-03-01 11:59:00,
2013-03-01 07:05:00,27.2,26.5,29.94,NNW,348,6.0,7.0,97,0.00,,,0.00,Wunderground v.1.15,2013-03-01 12:05:00,
2013-03-01 07:15:00,27.2,26.5,29.95,NNW,348,7.0,9.0,97,0.00,,,0.00,Wunderground v.1.15,2013-03-01 12:15:00,
2013-03-01 07:24:00,27.3,26.6,29.95,NNW,348,6.0,8.0,97,0.00,,,0.00,Wunderground v.1.15,2013-03-01 12:24:00,
2013-03-01 07:29:00,27.3,26.6,29.95,NNW,348,7.0,7.0,97,0.00,,,0.00,Wunderground v.1.15,2013-03-01 12:29:00,
2013-03-01 07:34:00,27.3,26.6,29.96,NNW,348,7.0,7.0,97,0.00,,,0.00,Wunderground v.1.15,2013-03-01 12:34:00,
2013-03-01 07:39:00,27.4,26.7,29.96,NNW,348,6.0,6.0,97,0.00,,,0.00,Wunderground v.1.15,2013-03-01 12:39:00,
2013-03-01 07:44:00,27.4,26.7,29.96,NNW,348,6.0,6.0,97,0.00,,,0.00,Wunderground v.1.15,2013-03-01 12:44:00,
2013-03-01 07:49:00,27.4,26.7,29.96,NNW,348,6.0,8.0,97,0.00,,,0.00,Wunderground v.1.15,2013-03-01 12:49:00,
2013-03-01 07:55:00,27.4,26.7,29.96,NNW,348,7.0,8.0,97,0.00,,,0.00,Wunderground v.1.15,2013-03-01 12:55:00,
2013-03-01 08:00:00,27.5,26.8,29.96,NNW,348,6.0,6.0,97,0.00,,,0.00,Wunderground v.1.15,2013-03-01 13:00:00,
2013-03-01 08:05:00,27.5,26.8,29.97,NNW,348,5.0,8.0,97,0.00,,,0.00,Wunderground v.1.15,2013-03-01 13:05:00,
2013-03-01 08:14:00,27.6,26.9,29.97,NNW,348,6.0,6.0,97,0.00,,,0.00,Wunderground v.1.15,2013-03-01 13:14:00,
2013-03-01 08:19:00,27.7,27.0,29.97,NNW,348,5.0,6.0,97,0.00,,,0.00,Wunderground v.1.15,2013-03-01 13:19:00,
2013-03-01 08:24:00,27.7,27.0,29.97,NNW,348,5.0,6.0,97,0.00,,,0.00,Wunderground v.1.15,2013-03-01 13:24:00,
2013-03-01 08:29:00,27.8,27.1,29.98,NNW,348,5.0,7.0,97,0.00,,,0.00,Wunderground v.1.15,2013-03-01 13:29:00,
2013-03-01 08:34:00,27.9,27.2,29.98,NNW,348,5.0,7.0,97,0.00,,,0.00,Wunderground v.1.15,2013-03-01 13:34:00,
2013-03-01 08:39:00,28.0,27.3,29.98,NNW,348,5.0,5.0,97,0.00,,,0.00,Wunderground v.1.15,2013-03-01 13:39:00,
2013-03-01 08:44:00,28.0,27.3,29.98,NNW,348,5.0,5.0,97,0.00,,,0.00,Wunderground v.1.15,2013-03-01 13:44:00,
2013-03-01 08:49:00,28.1,27.4,29.98,NNW,348,4.0,4.0,97,0.00,,,0.00,Wunderground v.1.15,2013-03-01 13:49:00,
2013-03-01 08:54:00,28.2,27.5,29.99,NNW,348,4.0,6.0,97,0.00,,,0.00,Wunderground v.1.15,2013-03-01 13:54:00,
2013-03-01 08:59:00,28.2,27.5,29.99,NNW,348,4.0,6.0,97,0.00,,,0.00,Wunderground v.1.15,2013-03-01 13:59:00,
2013-03-01 09:05:00,28.3,27.6,29.99,NNW,348,5.0,6.0,97,0.00,,,0.00,Wunderground v.1.15,2013-03-01 14:05:00,
2013-03-01 09:14:00,28.4,27.7,29.98,NNW,348,5.0,6.0,97,0.00,,,0.00,Wunderground v.1.15,2013-03-01 14:14:00,
2013-03-01 09:19:00,28.6,27.9,29.98,NNW,348,5.0,5.0,97,0.00,,,0.00,Wunderground v.1.15,2013-03-01 14:19:00,
2013-03-01 09:24:00,28.8,28.1,29.98,NNW,348,5.0,5.0,97,0.00,,,0.00,Wunderground v.1.15,2013-03-01 14:24:00,
2013-03-01 09:29:00,28.9,28.2,29.98,NNW,348,4.0,6.0,97,0.00,,,0.00,Wunderground v.1.15,2013-03-01 14:29:00,
2013-03-01 09:34:00,29.0,28.3,29.98,NNW,348,5.0,6.0,97,0.00,,,0.00,Wunderground v.1.15,2013-03-01 14:34:00,
2013-03-01 09:39:00,29.1,28.4,29.98,NNW,348,6.0,6.0,97,0.00,,,0.00,Wunderground v.1.15,2013-03-01 14:39:00,
2013-03-01 09:45:00,29.3,28.6,29.98,NNW,348,6.0,6.0,97,0.00,,,0.00,Wunderground v.1.15,2013-03-01 14:45:00,
2013-03-01 09:50:00,29.5,28.8,29.99,NNW,348,5.0,5.0,97,0.00,,,0.00,Wunderground v.1.15,2013-03-01 14:50:00,
2013-03-01 10:00:00,29.8,29.1,29.99,NNW,348,5.0,5.0,97,0.00,,,0.00,Wunderground v.1.15,2013-03-01 15:00:00,
2013-03-01 10:05:00,29.9,28.9,29.99,NNW,348,5.0,5.0,96,0.00,,,0.00,Wunderground v.1.15,2013-03-01 15:05:00,
2013-03-01 10:14:00,29.9,28.9,29.98,NNW,348,6.0,7.0,96,0.00,,,0.00,Wunderground v.1.15,2013-03-01 15:14:00,
2013-03-01 10:20:00,29.9,28.9,29.98,NNW,348,5.0,5.0,96,0.00,,,0.00,Wunderground v.1.15,2013-03-01 15:20:00,
2013-03-01 10:25:00,29.9,28.6,29.98,NNW,348,5.0,6.0,95,0.00,,,0.00,Wunderground v.1.15,2013-03-01 15:25:00,
2013-03-01 10:30:00,29.9,28.6,29.98,NNW,348,5.0,5.0,95,0.00,,,0.00,Wunderground v.1.15,2013-03-01 15:30:00,
2013-03-01 10:35:00,30.1,28.8,29.98,NNW,348,5.0,5.0,95,0.00,,,0.00,Wunderground v.1.15,2013-03-01 15:35:00,
2013-03-01 10:44:00,30.3,28.8,29.98,NNW,348,5.0,5.0,94,0.00,,,0.00,Wunderground v.1.15,2013-03-01 15:44:00,
2013-03-01 10:49:00,30.4,28.9,29.98,NNW,348,6.0,6.0,94,0.00,,,0.00,Wunderground v.1.15,2013-03-01 15:49:00,
2013-03-01 10:54:00,30.5,29.0,29.99,NNW,348,5.0,6.0,94,0.00,,,0.00,Wunderground v.1.15,2013-03-01 15:54:00,
2013-03-01 11:00:00,30.6,28.8,29.99,NNW,348,5.0,5.0,93,0.00,,,0.00,Wunderground v.1.15,2013-03-01 16:00:00,
2013-03-01 11:05:00,30.7,28.9,29.99,NNW,348,4.0,7.0,93,0.00,,,0.00,Wunderground v.1.15,2013-03-01 16:05:00,
2013-03-01 11:14:00,30.7,28.7,29.99,NNW,348,4.0,8.0,92,0.00,,,0.00,Wunderground v.1.15,2013-03-01 16:14:00,
2013-03-01 11:25:00,30.8,29.0,29.99,NNW,348,5.0,7.0,93,0.00,,,0.00,Wunderground v.1.15,2013-03-01 16:25:00,
2013-03-01 11:31:00,30.8,29.0,29.99,NNW,348,5.0,6.0,93,0.00,,,0.00,Wunderground v.1.15,2013-03-01 16:31:00,
2013-03-01 11:39:00,31.0,28.9,29.99,NNW,348,5.0,6.0,92,0.00,,,0.00,Wunderground v.1.15,2013-03-01 16:39:00,
2013-03-01 11:44:00,31.1,29.0,29.99,NNW,348,5.0,7.0,92,0.00,,,0.00,Wunderground v.1.15,2013-03-01 16:44:00,
2013-03-01 11:54:00,31.1,28.8,29.99,NNW,348,4.0,7.0,91,0.00,,,0.00,Wunderground v.1.15,2013-03-01 16:54:00,
2013-03-01 11:59:00,31.4,29.3,29.99,North,350,5.0,8.0,92,0.00,,,0.00,Wunderground v.1.15,2013-03-01 16:59:00,
2013-03-01 12:05:00,31.5,29.2,29.99,North,350,6.0,8.0,91,0.00,,,0.00,Wunderground v.1.15,2013-03-01 17:05:00,
2013-03-01 12:14:00,31.4,29.1,29.99,North,351,5.0,6.0,91,0.00,,,0.00,Wunderground v.1.15,2013-03-01 17:14:00,
2013-03-01 12:20:00,31.6,29.3,29.98,North,355,6.0,6.0,91,0.00,,,0.00,Wunderground v.1.15,2013-03-01 17:20:00,
2013-03-01 12:25:00,31.7,29.1,29.98,North,355,6.0,7.0,90,0.00,,,0.00,Wunderground v.1.15,2013-03-01 17:25:00,
2013-03-01 12:30:00,31.9,29.3,29.98,North,349,6.0,6.0,90,0.00,,,0.00,Wunderground v.1.15,2013-03-01 17:30:00,
2013-03-01 12:39:00,32.0,29.1,29.98,North,350,8.0,8.0,89,0.00,,,0.00,Wunderground v.1.15,2013-03-01 17:39:00,
2013-03-01 12:44:00,32.1,29.2,29.98,North,351,6.0,8.0,89,0.00,,,0.00,Wunderground v.1.15,2013-03-01 17:44:00,
2013-03-01 12:49:00,32.4,29.5,29.98,North,355,6.0,6.0,89,0.00,,,0.00,Wunderground v.1.15,2013-03-01 17:49:00,
2013-03-01 12:55:00,32.6,29.7,29.98,North,350,7.0,7.0,89,0.00,,,0.00,Wunderground v.1.15,2013-03-01 17:55:00,
2013-03-01 13:00:00,32.8,29.6,29.98,North,355,7.0,8.0,88,0.00,,,0.00,Wunderground v.1.15,2013-03-01 18:00:00,
2013-03-01 13:05:00,32.8,29.4,29.98,North,360,7.0,8.0,87,0.00,,,0.00,Wunderground v.1.15,2013-03-01 18:05:00,
2013-03-01 13:14:00,32.8,29.4,29.97,North,355,7.0,10.0,87,0.00,,,0.00,Wunderground v.1.15,2013-03-01 18:14:00,
2013-03-01 13:19:00,32.8,29.4,29.97,North,355,7.0,8.0,87,0.00,,,0.00,Wunderground v.1.15,2013-03-01 18:19:00,
2013-03-01 13:24:00,32.8,29.1,29.97,North,355,8.0,8.0,86,0.00,,,0.00,Wunderground v.1.15,2013-03-01 18:24:00,
2013-03-01 13:30:00,32.9,29.5,29.97,North,355,7.0,7.0,87,0.00,,,0.00,Wunderground v.1.15,2013-03-01 18:30:00,
2013-03-01 13:35:00,33.5,30.3,29.96,North,350,7.0,10.0,88,0.00,,,0.00,Wunderground v.1.15,2013-03-01 18:35:00,
2013-03-01 13:40:00,33.9,30.2,29.96,North,355,8.0,11.0,86,0.00,,,0.00,Wunderground v.1.15,2013-03-01 18:40:00,
2013-03-01 13:49:00,34.2,30.4,29.95,North,355,8.0,11.0,86,0.00,,,0.00,Wunderground v.1.15,2013-03-01 18:49:00,
2013-03-01 13:54:00,34.4,30.4,29.95,North,355,8.0,11.0,85,0.00,,,0.00,Wunderground v.1.15,2013-03-01 18:54:00,
2013-03-01 14:05:00,36.3,32.5,29.95,North,360,7.0,9.0,86,0.00,,,0.00,Wunderground v.1.15,2013-03-01 19:05:00,
2013-03-01 14:15:00,37.0,31.7,29.95,North,360,6.0,7.0,81,0.00,,,0.00,Wunderground v.1.15,2013-03-01 19:15:00,
2013-03-01 14:24:00,37.2,32.2,29.95,North,350,6.0,7.0,82,0.00,,,0.00,Wunderground v.1.15,2013-03-01 19:24:00,
2013-03-01 14:29:00,37.2,31.0,29.95,NNW,346,6.0,9.0,78,0.00,,,0.00,Wunderground v.1.15,2013-03-01 19:29:00,
2013-03-01 14:34:00,37.0,30.8,29.94,North,355,8.0,9.0,78,0.00,,,0.00,Wunderground v.1.15,2013-03-01 19:34:00,
2013-03-01 14:45:00,36.5,30.3,29.94,North,349,8.0,10.0,78,0.00,,,0.00,Wunderground v.1.15,2013-03-01 19:45:00,
2013-03-01 14:50:00,36.3,30.1,29.94,North,355,8.0,8.0,78,0.00,,,0.00,Wunderground v.1.15,2013-03-01 19:50:00,
2013-03-01 14:59:00,35.0,28.8,29.94,NNW,344,7.0,7.0,78,0.00,,,0.00,Wunderground v.1.15,2013-03-01 19:59:00,
2013-03-01 15:05:00,34.4,28.6,29.94,NNW,347,7.0,7.0,79,0.00,,,0.00,Wunderground v.1.15,2013-03-01 20:05:00,
2013-03-01 15:14:00,34.2,28.7,29.94,NNW,331,6.0,6.0,80,0.00,,,0.00,Wunderground v.1.15,2013-03-01 20:14:00,
2013-03-01 15:19:00,33.7,28.5,29.94,North,350,6.0,9.0,81,0.00,,,0.00,Wunderground v.1.15,2013-03-01 20:19:00,
2013-03-01 15:24:00,34.0,29.4,29.94,NNW,348,6.0,9.0,83,0.00,,,0.00,Wunderground v.1.15,2013-03-01 20:24:00,
2013-03-01 15:30:00,34.4,29.2,29.94,North,355,6.0,6.0,81,0.00,,,0.00,Wunderground v.1.15,2013-03-01 20:30:00,
2013-03-01 15:39:00,34.4,28.6,29.94,North,351,6.0,6.0,79,0.00,,,0.00,Wunderground v.1.15,2013-03-01 20:39:00,
2013-03-01 15:44:00,34.4,28.9,29.94,North,355,6.0,6.0,80,0.00,,,0.00,Wunderground v.1.15,2013-03-01 20:44:00,
2013-03-01 15:49:00,34.1,28.6,29.94,North,350,6.0,7.0,80,0.00,,,0.00,Wunderground v.1.15,2013-03-01 20:49:00,
2013-03-01 15:54:00,34.0,28.5,29.94,North,360,6.0,7.0,80,0.00,,,0.00,Wunderground v.1.15,2013-03-01 20:54:00,
2013-03-01 16:00:00,33.8,28.3,29.94,NNW,338,7.0,7.0,80,0.00,,,0.00,Wunderground v.1.15,2013-03-01 21:00:00,
2013-03-01 16:05:00,33.8,28.3,29.94,North,355,7.0,7.0,80,0.00,,,0.00,Wunderground v.1.15,2013-03-01 21:05:00,
2013-03-01 16:14:00,34.4,29.8,29.93,North,351,6.0,7.0,83,0.00,,,0.00,Wunderground v.1.15,2013-03-01 21:14:00,
2013-03-01 16:19:00,34.7,29.2,29.93,North,360,6.0,6.0,80,0.00,,,0.00,Wunderground v.1.15,2013-03-01 21:19:00,
2013-03-01 16:24:00,34.7,28.9,29.94,North,351,6.0,6.0,79,0.00,,,0.00,Wunderground v.1.15,2013-03-01 21:24:00,
2013-03-01 16:29:00,34.4,28.6,29.94,North,349,5.0,9.0,79,0.00,,,0.00,Wunderground v.1.15,2013-03-01 21:29:00,
2013-03-01 16:35:00,34.4,28.9,29.94,North,351,6.0,9.0,80,0.00,,,0.00,Wunderground v.1.15,2013-03-01 21:35:00,
2013-03-01 16:40:00,34.1,28.6,29.94,North,355,6.0,8.0,80,0.00,,,0.00,Wunderground v.1.15,2013-03-01 21:40:00,
2013-03-01 16:45:00,34.0,28.5,29.94,NNW,337,6.0,8.0,80,0.00,,,0.00,Wunderground v.1.15,2013-03-01 21:45:00,
2013-03-01 16:54:00,34.0,28.5,29.94,North,360,6.0,7.0,80,0.00,,,0.00,Wunderground v.1.15,2013-03-01 21:54:00,
2013-03-01 16:59:00,33.9,28.1,29.94,North,360,7.0,7.0,79,0.00,,,0.00,Wunderground v.1.15,2013-03-01 21:59:00,
2013-03-01 17:05:00,33.7,27.9,29.94,North,355,6.0,7.0,79,0.00,,,0.00,Wunderground v.1.15,2013-03-01 22:05:00,
2013-03-01 17:14:00,33.5,27.7,29.94,NNW,344,8.0,11.0,79,0.00,,,0.00,Wunderground v.1.15,2013-03-01 22:14:00,
2013-03-01 17:20:00,33.5,28.0,29.95,North,350,7.0,7.0,80,0.00,,,0.00,Wunderground v.1.15,2013-03-01 22:20:00,
2013-03-01 17:30:00,33.5,28.3,29.95,North,349,6.0,6.0,81,0.00,,,0.00,Wunderground v.1.15,2013-03-01 22:30:00,
2013-03-01 17:35:00,33.4,28.2,29.95,North,349,6.0,6.0,81,0.00,,,0.00,Wunderground v.1.15,2013-03-01 22:35:00,
2013-03-01 17:44:00,33.2,28.3,29.96,North,355,6.0,7.0,82,0.00,,,0.00,Wunderground v.1.15,2013-03-01 22:44:00,
2013-03-01 17:50:00,33.0,28.1,29.96,North,355,6.0,6.0,82,0.00,,,0.00,Wunderground v.1.15,2013-03-01 22:50:00,
2013-03-01 17:59:00,32.9,28.0,29.95,North,355,6.0,6.0,82,0.00,,,0.00,Wunderground v.1.15,2013-03-01 22:59:00,
2013-03-01 18:05:00,32.8,28.2,29.95,North,355,6.0,7.0,83,0.00,,,0.00,Wunderground v.1.15,2013-03-01 23:05:00,
2013-03-01 18:14:00,32.5,27.9,29.95,North,9,6.0,6.0,83,0.00,,,0.00,Wunderground v.1.15,2013-03-01 23:14:00,
2013-03-01 18:19:00,32.3,27.7,29.95,North,5,7.0,7.0,83,0.00,,,0.00,Wunderground v.1.15,2013-03-01 23:19:00,
2013-03-01 18:24:00,32.1,27.5,29.95,North,355,7.0,9.0,83,0.00,,,0.00,Wunderground v.1.15,2013-03-01 23:24:00,
2013-03-01 18:29:00,32.0,27.7,29.96,North,355,7.0,9.0,84,0.00,,,0.00,Wunderground v.1.15,2013-03-01 23:29:00,
2013-03-01 18:34:00,31.9,27.6,29.96,NNW,346,7.0,9.0,84,0.00,,,0.00,Wunderground v.1.15,2013-03-01 23:34:00,
2013-03-01 18:39:00,31.8,27.5,29.96,North,351,7.0,8.0,84,0.00,,,0.00,Wunderground v.1.15,2013-03-01 23:39:00,
2013-03-01 18:44:00,31.7,27.7,29.97,North,355,6.0,8.0,85,0.00,,,0.00,Wunderground v.1.15,2013-03-01 23:44:00,
2013-03-01 18:49:00,31.6,27.6,29.96,North,355,5.0,7.0,85,0.00,,,0.00,Wunderground v.1.15,2013-03-01 23:49:00,
2013-03-01 18:54:00,31.4,27.4,29.96,North,360,5.0,7.0,85,0.00,,,0.00,Wunderground v.1.15,2013-03-01 23:54:00,
2013-03-01 18:59:00,31.3,27.3,29.96,North,360,5.0,5.0,85,0.00,,,0.00,Wunderground v.1.15,2013-03-01 23:59:00,
2013-03-01 19:05:00,31.2,27.5,29.96,North,5,4.0,5.0,86,0.00,,,0.00,Wunderground v.1.15,2013-03-02 00:05:00,
2013-03-01 19:15:00,31.0,27.3,29.97,North,355,4.0,5.0,86,0.00,,,0.00,Wunderground v.1.15,2013-03-02 00:15:00,
2013-03-01 19:24:00,30.9,27.5,29.98,North,355,3.0,5.0,87,0.00,,,0.00,Wunderground v.1.15,2013-03-02 00:24:00,
2013-03-01 19:29:00,31.0,27.6,29.97,North,355,2.0,2.0,87,0.00,,,0.00,Wunderground v.1.15,2013-03-02 00:29:00,
2013-03-01 19:34:00,31.0,27.6,29.98,North,355,1.0,2.0,87,0.00,,,0.00,Wunderground v.1.15,2013-03-02 00:34:00,
2013-03-01 19:39:00,31.0,27.6,29.98,North,360,1.0,1.0,87,0.00,,,0.00,Wunderground v.1.15,2013-03-02 00:39:00,
2013-03-01 19:44:00,31.0,27.6,29.98,North,355,3.0,4.0,87,0.00,,,0.00,Wunderground v.1.15,2013-03-02 00:44:00,
2013-03-01 19:49:00,31.0,27.6,29.98,North,355,4.0,4.0,87,0.00,,,0.00,Wunderground v.1.15,2013-03-02 00:49:00,
2013-03-01 19:59:00,31.0,27.6,29.98,North,349,3.0,3.0,87,0.00,,,0.00,Wunderground v.1.15,2013-03-02 00:59:00,
2013-03-01 20:04:00,31.0,27.6,29.98,North,355,2.0,3.0,87,0.00,,,0.00,Wunderground v.1.15,2013-03-02 01:04:00,
2013-03-01 20:14:00,31.0,27.6,29.98,North,351,2.0,4.0,87,0.00,,,0.00,Wunderground v.1.15,2013-03-02 01:14:00,
2013-03-01 20:19:00,31.0,27.3,29.99,North,355,4.0,5.0,86,0.00,,,0.00,Wunderground v.1.15,2013-03-02 01:19:00,
2013-03-01 20:24:00,31.1,27.4,29.98,North,350,4.0,5.0,86,0.00,,,0.00,Wunderground v.1.15,2013-03-02 01:24:00,
2013-03-01 20:29:00,31.1,27.4,29.98,North,355,3.0,4.0,86,0.00,,,0.00,Wunderground v.1.15,2013-03-02 01:29:00,
2013-03-01 20:34:00,31.1,27.4,29.98,North,355,3.0,4.0,86,0.00,,,0.00,Wunderground v.1.15,2013-03-02 01:34:00,
2013-03-01 20:44:00,31.1,27.4,29.98,North,355,2.0,3.0,86,0.00,,,0.00,Wunderground v.1.15,2013-03-02 01:44:00,
2013-03-01 20:49:00,31.1,27.4,29.98,North,355,1.0,2.0,86,0.00,,,0.00,Wunderground v.1.15,2013-03-02 01:49:00,
2013-03-01 20:54:00,31.0,27.6,29.98,North,355,1.0,4.0,87,0.00,,,0.00,Wunderground v.1.15,2013-03-02 01:54:00,
2013-03-01 20:59:00,31.0,27.6,29.97,NNE,17,2.0,2.0,87,0.00,,,0.00,Wunderground v.1.15,2013-03-02 01:59:00,
2013-03-01 21:05:00,31.0,27.6,29.98,NNW,348,3.0,3.0,87,0.00,,,0.00,Wunderground v.1.15,2013-03-02 02:05:00,
2013-03-01 21:14:00,30.9,27.5,29.98,North,360,1.0,2.0,87,0.00,,,0.00,Wunderground v.1.15,2013-03-02 02:14:00,
2013-03-01 21:19:00,30.9,27.5,29.98,NNW,347,1.0,4.0,87,0.00,,,0.00,Wunderground v.1.15,2013-03-02 02:19:00,
2013-03-01 21:24:00,30.9,27.5,29.97,North,360,2.0,4.0,87,0.00,,,0.00,Wunderground v.1.15,2013-03-02 02:24:00,
2013-03-01 21:29:00,30.9,27.8,29.98,North,355,2.0,5.0,88,0.00,,,0.00,Wunderground v.1.15,2013-03-02 02:29:00,
2013-03-01 21:34:00,30.9,27.8,29.98,North,9,2.0,5.0,88,0.00,,,0.00,Wunderground v.1.15,2013-03-02 02:34:00,
2013-03-01 21:39:00,30.9,27.8,29.98,North,355,3.0,6.0,88,0.00,,,0.00,Wunderground v.1.15,2013-03-02 02:39:00,
2013-03-01 21:49:00,30.8,27.7,29.98,North,360,4.0,5.0,88,0.00,,,0.00,Wunderground v.1.15,2013-03-02 02:49:00,
2013-03-01 21:54:00,30.8,27.7,29.98,North,355,4.0,5.0,88,0.00,,,0.00,Wunderground v.1.15,2013-03-02 02:54:00,
2013-03-01 21:59:00,30.8,27.9,29.98,North,355,4.0,5.0,89,0.00,,,0.00,Wunderground v.1.15,2013-03-02 02:59:00,
2013-03-01 22:05:00,30.8,27.9,29.98,North,351,3.0,5.0,89,0.00,,,0.00,Wunderground v.1.15,2013-03-02 03:05:00,
2013-03-01 22:14:00,30.7,27.8,29.98,North,5,4.0,5.0,89,0.00,,,0.00,Wunderground v.1.15,2013-03-02 03:14:00,
2013-03-01 22:19:00,30.7,27.8,29.98,North,355,4.0,6.0,89,0.00,,,0.00,Wunderground v.1.15,2013-03-02 03:19:00,
2013-03-01 22:29:00,30.7,28.1,29.98,North,355,4.0,5.0,90,0.00,,,0.00,Wunderground v.1.15,2013-03-02 03:29:00,
2013-03-01 22:34:00,30.6,28.0,29.98,North,350,5.0,7.0,90,0.00,,,0.00,Wunderground v.1.15,2013-03-02 03:34:00,
2013-03-01 22:39:00,30.6,28.0,29.98,North,5,6.0,6.0,90,0.00,,,0.00,Wunderground v.1.15,2013-03-02 03:39:00,
2013-03-01 22:44:00,30.6,28.0,29.98,North,355,6.0,8.0,90,0.00,,,0.00,Wunderground v.1.15,2013-03-02 03:44:00,
2013-03-01 22:54:00,30.5,27.9,29.97,North,351,6.0,8.0,90,0.00,,,0.00,Wunderground v.1.15,2013-03-02 03:54:00,
2013-03-01 22:59:00,30.4,27.8,29.97,North,351,5.0,9.0,90,0.00,,,0.00,Wunderground v.1.15,2013-03-02 03:59:00,
2013-03-01 23:05:00,30.4,27.8,29.97,North,351,6.0,9.0,90,0.00,,,0.00,Wunderground v.1.15,2013-03-02 04:05:00,
2013-03-01 23:14:00,30.3,28.0,29.96,North,351,7.0,7.0,91,0.00,,,0.00,Wunderground v.1.15,2013-03-02 04:14:00,
2013-03-01 23:19:00,30.3,28.0,29.96,North,351,6.0,6.0,91,0.00,,,0.00,Wunderground v.1.15,2013-03-02 04:19:00,
2013-03-01 23:29:00,30.2,27.9,29.96,North,351,7.0,7.0,91,0.00,,,0.00,Wunderground v.1.15,2013-03-02 04:29:00,
2013-03-01 23:34:00,30.1,28.1,29.96,North,351,7.0,8.0,92,0.00,,,0.00,Wunderground v.1.15,2013-03-02 04:34:00,
2013-03-01 23:39:00,30.1,28.1,29.95,North,351,7.0,7.0,92,0.00,,,0.00,Wunderground v.1.15,2013-03-02 04:39:00,
2013-03-01 23:44:00,30.1,28.1,29.95,North,351,6.0,7.0,92,0.00,,,0.00,Wunderground v.1.15,2013-03-02 04:44:00,
2013-03-01 23:54:00,30.0,28.0,29.95,North,351,6.0,7.0,92,0.00,,,0.00,Wunderground v.1.15,2013-03-02 04:54:00,
2013-03-01 23:59:00,30.0,28.0,29.95,North,351,7.0,10.0,92,0.00,,,0.00,Wunderground v.1.15,2013-03-02 04:59:00,